Погода в Ванаваре

Погода в Ванаваре : погода сейчас, прогноз погоды и архив. Всё, что Вы хотите узнать о погоде в Ванаваре!

Хотите узнать прогноз погоды в Ванаваре? Тогда Вам сюда: Погода в Ванаваре

Поиск расширенной информации на нашем сайте:

Другие новости

Новости СМИ2

Главная страница сайта

Новости сайта

03.07.2017

Напоминаем, что на нашем специализированном сайте Метеоцентр.Азия вы можете получить высокодетализированные автоматические прогнозы погоды по пунктам России, СНГ и мира в авиационном формате (включающие направление и скорость ветра, видимость, явления погоды, количество и форму облачности, нижнюю и верхнюю границу облачности).

Рекомендуем: Заправка картриджей Xerox Фрунзенская.

Погода в Ванаваре - сегодня

Время (UTC), дата Ветер
(°,м/с) 
Видим.   Явления Облачность Т
(°С)
Тd
(°С)
f(%) Тe
(°С)
Pmin
(гПа)
dP
(гПа)
Po
(мм)
O2
(г/м3)
Тmin Tmax R s Состояние
почвы
18 20.11.17 280 (З) 20000 м  слаб. снег{ливн. осадки}  10/0 верхняя 
[Cs]
-22.6 -24.3 86 -23  1022.6  1.9  740  327           
21 20.11.17 тихо ()   20000 м  {снег}  10/0 верхняя 
[Cs]
-24.5 -26.2 86 -25  1025.1  2.2  742  330           
00 21.11.17 тихо ()   20000 м  {снег}  6/0 верхняя 
[Ci fib]
-28.6 -30.9 81 -29  1028  2.2  744  337  -28.6    0.3  29  равномерный
сухой снег
100% 
03 21.11.17 200 (Ю) 20000 м    8/0 верхняя 
[Ci fib]
-30.1 -32.6 79 -31  1030  1.6  745  339  -31.3         
06 21.11.17 тихо ()   20000 м  слаб. снег  10/0 верхняя 
[Cs]
-24.3 -26.4 83 -24  1030.6  1.5  746  332           
09 21.11.17 200 (Ю) 20000 м  {снег}  10/0 верхняя 
[Cs]
-26 -28 83 -27  1032.2  1.4  747  334           
12 21.11.17 тихо ()   20000 м  слаб. снег  10/0 верхняя 
[Cs]
-31.9 -34.6 77 -32  1034.1  0.9  748  343    -23  0.0     
15 21.11.17 тихо ()   20000 м  слаб. снег  10/0 верхняя 
[Cs]
-35.2 -38.3 73 -35  1034.6  748  348           
18 21.11.17 тихо ()   20000 м  {снег}  10/0 верхняя 
[Cs]
-37.6 -41.1 70 -38  1035.1  0.1  748  351           
21 21.11.17 тихо ()   20000 м    10/0 верхняя 
[Cs]
-38.8 -42.4 69 -39  1035.2  -0.1  748  353           
00 22.11.17 030 (СВ) 20000 м    10/0 верхняя 
[Ci fib]
-39.5 -43.2 68 -41  1035  -0.4  747  354  -40    0.2  28  равномерный
сухой снег
100% 
03 22.11.17 тихо ()   20000 м    1/0 верхняя 
[Ci fib]
-38.3 -41.9 69 -38  1034.8  747  352  -40.3         
06 22.11.17 тихо ()   20000 м    ясно 
-29.4 -32.9 72 -29  1033.3  -0.1  747  339           
09 22.11.17 тихо ()   20000 м    ясно 
-32.5 -35.4 75 -33  1034.7  748  344           
12 22.11.17 220 (ЮЗ) 20000 м    ясно 
-36.5 -39.8 71 -38  1036.8  1.4  749  350    -27.3       
15 22.11.17 230 (ЮЗ) 20000 м    ясно 
-38.8 -42.4 69 -40  1037.9  0.6  749  354           
18 22.11.17 тихо ()   20000 м    ясно 
-39.6 -43.4 67 -40  1038.5  0.5  750  355           
21 22.11.17 тихо ()   20000 м    6/0 средняя, верхняя 
[Ac trans|Ci fib]
-37.8 -41.4 69 -38  1038.7  0.5  750  353           
00 23.11.17 тихо ()   20000 м  слаб. снег  10/8 1000 м верхняя 
[Sc|Cs]
-34.9 -38.1 73 -35  1038  -0.2  750  349  -40.1    0.0  28  равномерный
сухой снег
100% 
03 23.11.17 тихо ()   20000 м  слаб. снег  10/0 средняя, верхняя 
[Sc|Ac trans|Cs]
-31.1 -34.1 75 -31  1037.7  0.3  750  343           
06 23.11.17 тихо ()   20000 м  {снег}  9/3 1000 м средняя 
[Sc|Ac trans]
-26.9 -30 75 -27  1037.2  0.1  750  337           
09 23.11.17 030 (СВ) 20000 м    3/3 1000 м 
[Sc]
-30.4 -32.9 79 -31  1037.5  -0.2  750  342           
12 23.11.17 тихо ()   20000 м    ясно 
-35.4 -38.6 72 -35  1038.5  0.1  750  349    -26.6  0.0     
15 23.11.17 040 (СВ) 20000 м    3/0 верхняя 
[Ci fib]
-38.1 -41.6 70 -39  1038.4  -0.5  750  353           
18 23.11.17 тихо ()   20000 м    8/0 верхняя 
[Ci fib]
-38.7 -42.4 68 -39  1038.6  0.1  750  354           
Время (UTC), дата Ветер
(°,м/с) 
Видим.   Явления Облачность Т
(°С)
Тd
(°С)
f(%) Тe
(°С)
Pmin
(гПа)
dP
(гПа)
Po
(мм)
O2
(г/м3)
Тmin Tmax R s Состояние
почвы

Для получения пояснительной информации подведите курсор к названию столбца.

ПОГОДА в Ванаваре - архив

Всё, что Вы хотите узнать о погоде в Ванаваре - удобно и подробно!

Выберите нужную дату (начиная с 1 января 2015* года) и нажмите кнопку "Найти".
Будут отображены архивные сводки погоды по пункту Ванавара, начиная с указанной даты.


Отображать данные в формате CSV (для использования в таблицах Excel)


Внимание! Наш архив погоды предназначен исключительно для личного некоммерческого использования в познавательных целях. Если Вам необходимы официальные справки о состоянии погоды (для производственных, юридических, коммерческих и т.п. целей), обращайтесь в органы Росгидромета.

*Примечание: данная дата относится к архиву по метеостанциям СССР (Россия, СНГ, Балтия).
Архив по метеостанциям Зарубежной Европы и Азии (кроме Китая) хранится 10 дней, по другим регионам земного шара (Китай, Африка, Америка, Австралия, Океания) - 1 день.

Ванавара - район местоположения метеостанции


Название, широта, долгота, высота метеостанции:
Ванавара 60.3°ш. 102.3°д. 260 м над ур. моря [Российская Федерация]

Дополнительная информация

В oтличие oт бoльшинства пoгoдных сайтoв мы публикуем пoдрoбную метеoинфoрмацию в детальнoм прoфессиoнальнoм фoрмате.

Характеристики температуры и влажнoсти вoздуха измеряются на высoте 2 м в тени вдали oт зданий и деревьев.
Скoрoсть ветра измеряется на высoте 10 м (на урoвне рoста челoвека скoрoсть ветра ниже в 1.5-2 раза). Если метеoстанция нахoдится в гoрoде или в лесу, тo скoрoсть ветра занижена на 2-4 м/с пo сравнению с oткрытым местoм. Скoрoсть ветра над акватoриями крупных рек и oзёр, а также на вершинах хoлмoв на 2-5 м/с выше, чем в oбычных услoвиях.
Атмoсфернoе давление в разных тoчках местнoсти мoжет значительнo oтличаться oт давления на метеoстанции, в зависимoсти oт услoвий рельефа (при пoдъёме на 10 м давление пoнижается примернo на 1 мм рт.ст.).